[[{"header":{"parameterUnit":"m.s-1","parameterCategory":1,"la1":30.2991,"la2":30.254,"lo1":-89.0895,"lo2":-89.0444,"dy":0.0017,"dx":0.0017,"nx":28,"ny":28,"refTime":"2024-06-16T21:00:00:Z","depth":0,"parameterNumber":2,"parameterNumberName":"U-component_of_WINDS"},"data":[0,0,0,0,0,0,0,0,0,0,0,0,0,0,0,0,0,0,0,0,0,0,0,0,0,0,0,0,0,0,0,0,0,0,0,0,0,0,0,0,0,0,0,0,0,0,0,0,0,0,0,0,0,0,0,0,0,0,-7.9325,-7.9325,0,-7.9345,-7.9345,-7.9345,-7.911,-7.9104,-7.9097,-7.9091,-7.9113,-7.9119,-7.9126,0,0,0,0,0,0,0,0,0,0,0,0,0,-7.9084,-7.909,-7.9325,-7.9325,-7.9325,-7.9345,-7.9345,-7.9345,-7.9111,-7.9103,-7.9096,-7.9088,-7.9111,-7.9119,-7.9126,0,0,0,0,0,0,0,0,0,0,0,0,0,-7.9155,-7.9092,-7.9325,-7.9211,-7.9201,-7.9345,-7.9345,-7.9345,-7.9113,-7.9103,-7.9094,-7.9085,-7.9108,-7.9118,-7.9128,-7.9382,0,0,-7.9158,-7.9162,0,0,0,0,0,0,0,0,-7.9151,-7.9164,-7.9227,-7.9219,-7.9208,-7.9215,-7.9268,-7.9358,-7.9115,-7.9147,-7.9091,-7.908,-7.9155,-7.916,-7.9185,-7.9383,-7.9384,-7.9159,-7.9165,-7.9169,-7.9172,0,0,0,0,0,0,0,-7.9147,-7.9162,-7.9333,-7.9229,-7.9217,-7.9159,-7.9158,-7.9284,-7.9205,-7.9143,-7.9126,-7.9131,-7.9148,-7.9176,-7.9184,-7.9384,-7.9158,-7.9167,-7.9173,-7.9177,-7.979,-7.98,0,0,0,0,0,0,-7.9157,-7.9159,-7.9332,-7.9333,-7.9155,-7.9171,-7.917,-7.9223,-7.9203,-7.919,-7.914,-7.912,-7.9164,-7.9173,-7.9184,-7.9479,-7.9169,-7.9178,-7.9184,-7.978,-7.9792,-7.9804,0,0,0,0,0,0,-7.9153,-7.9175,-7.9331,-7.9242,-7.9257,-7.9185,-7.9246,-7.9228,-7.9256,-7.92,-7.9185,-7.9184,-7.9157,-7.917,-7.9334,-7.9477,-7.9182,-7.9191,-7.9768,-7.9784,-7.9798,-8.0073,0,0,0,0,0,0,-7.9147,-7.9175,-7.9271,-7.9246,-7.9263,-7.9482,-7.9255,-7.9236,-7.9274,-7.9249,-7.9237,-7.9226,-7.915,-7.9321,-7.9344,-7.9485,-7.9199,-7.9754,-7.9775,-7.9793,-8.0051,-8.0096,-8.0135,0,0,0,0,0,-7.9139,-7.9348,-7.9277,-7.9299,-7.9381,-7.9491,-7.95,-7.9409,-7.9287,-7.9382,-7.9346,-7.9226,-7.9458,-7.9339,-7.9364,-7.951,-7.9745,-7.9769,-7.9792,-8.0032,-8.0088,-8.0134,0,0,0,0,0,0,-7.9392,-7.9342,-7.9263,-7.947,-7.9486,-7.9451,-7.9568,-7.947,-7.9522,-7.9496,-7.9381,-7.938,-7.9563,-7.9553,-7.9422,-7.9754,-7.958,-7.9609,-7.9755,-7.9806,-7.9848,-7.9846,-7.9207,0,0,0,0,0,-7.9472,-7.9564,-7.9516,-7.9703,-7.9715,-7.9642,-7.9686,-7.9614,-7.9626,-7.9632,-7.9607,-7.9624,-7.97,-7.9753,-7.982,-8.0049,-8.0042,-8.0161,-8.0203,-8.0238,-8.0265,-8.0384,-8.0436,-7.988,-7.988,-7.988,0,0,-7.9637,-7.9622,-7.9687,-7.9754,-7.9758,-7.9856,-7.9649,-7.9762,-7.9834,-7.9649,-7.9801,-7.9785,-7.9796,-7.9994,-8.0079,-7.9991,-8.0417,-8.0268,-8.0296,-8.0303,-8.0413,-8.0466,-8.0513,-7.9896,-7.9893,-7.9891,0,0,-7.9989,-7.9987,-8.0142,-8.0151,-8.0159,-8.0109,-8.0147,-8.0126,-8.0107,-8.0259,-8.0122,-8.0206,-8.034,-8.0353,-8.0378,-8.0735,-8.0627,-8.076,-8.0979,-8.1097,-8.1141,-8.1179,-8.1306,-8.1353,-8.0787,-8.0788,-8.0788,0,-8.0194,-8.0336,-8.0234,-8.0357,-8.039,-8.0227,-8.0382,-8.0396,-8.0427,-8.0453,-8.0353,-8.0517,-8.0513,-8.0711,-8.0799,-8.0824,-8.0863,-8.0761,-8.1143,-8.118,-8.1214,-8.1334,-8.1382,-8.0804,-8.0802,-8.08,-8.0799,0,-8.0587,-8.0689,-8.0813,-8.0846,-8.0893,-8.1032,-8.0951,-8.1011,-8.0935,-8.0895,-8.1052,-8.1041,-8.1103,-8.1145,-8.1072,-8.1333,-8.1277,-8.1163,-8.0984,-8.1285,-8.1395,-8.144,-8.0827,-8.0821,-8.0816,-8.0812,0,0,-8.1098,-8.1073,-8.1121,-8.1133,-8.1131,-8.1207,-8.1339,-8.1399,-8.1452,-8.1479,-8.1586,-8.1703,-8.1596,-8.1624,-8.1552,-8.1656,-8.1938,-8.1527,-8.1525,-8.1603,-8.2224,-8.231,-8.2365,-8.1867,-8.1875,-8.1882,-8.2223,0,-8.144,-8.1662,-8.1574,-8.1804,-8.1896,-8.1742,-8.1856,-8.1868,-8.1835,-8.1908,-8.187,-8.1955,-8.1808,-8.1823,-8.1919,-8.1884,-8.2061,-8.1858,-8.1965,-8.197,-8.1966,-8.2422,-8.2514,-8.2836,-8.2265,-8.2273,-8.2278,0,-8.1867,-8.1911,-8.2151,-8.2132,-8.2167,-8.2271,-8.2319,-8.2391,-8.24,-8.2368,-8.2401,-8.2305,-8.2432,-8.2256,-8.243,-8.2294,-8.2332,-8.2322,-8.2332,-8.2337,-8.2142,-8.244,-8.2937,-8.2985,-8.2345,-8.234,-8.2335,0,-8.2215,-8.2334,-8.2492,-8.2508,-8.249,-8.2567,-8.2563,-8.2563,-8.2605,-8.2647,-8.2672,-8.2729,-8.2761,-8.2807,-8.2729,-8.2608,-8.2914,-8.2731,-8.2891,-8.2894,-8.2961,-8.2958,-8.3471,-8.2989,-8.2988,-8.2987,-8.2986,0,-8.2605,-8.2757,-8.2648,-8.2745,-8.2911,-8.2809,-8.2975,-8.2955,-8.2956,-8.3047,-8.2918,-8.3006,-8.2898,-8.2976,-8.2917,-8.3069,-8.3084,-8.3062,-8.3044,-8.3073,-8.3076,-8.3096,-8.3071,-8.3,-8.2997,-8.2995,-8.2993,0,-8.302,-8.2954,-8.3115,-8.3086,-8.3082,-8.3205,-8.3179,-8.3268,-8.3225,-8.3341,-8.3363,-8.3297,-8.3381,-8.3309,-8.3391,-8.335,-8.3553,-8.3504,-8.355,-8.3536,-8.3699,-8.3685,-8.4242,-8.431,-8.3786,-8.3791,-8.3795,0,-8.3273,-8.3386,-8.3369,-8.342,-8.3424,-8.3508,-8.355,-8.3454,-8.3502,-8.3522,-8.3609,-8.3682,-8.3736,-8.3878,-8.3838,-8.39,-8.385,-8.4041,-8.3859,-8.3884,-8.3852,-8.3846,-8.3856,-8.4078,-8.4084,-8.4089,-8.4094,0,-8.3728,-8.3689,-8.3754,-8.3808,-8.3862,-8.3899,-8.3927,-8.3977,-8.3878,-8.394,-8.4024,-8.4066,-8.4149,-8.4224,-8.4273,-8.4268,-8.4166,-8.4152,-8.4191,-8.4222,-8.4243,-8.4233,-8.365,-8.4139,-8.4134,-8.4131,-8.4129,-8.4127,-8.4069,-8.4162,-8.4164,-8.424,-8.4251,-8.428,-8.4362,-8.433,-8.4398,-8.4458,-8.4398,-8.4501,-8.4507,-8.4562,-8.457,-8.4649,-8.4569,-8.4628,-8.4642,-8.4658,-8.4681,-8.4232,-8.4658,-8.4656,-8.4655,-8.4654,-8.4653,0,-8.4516,-8.451,-8.4581,-8.4624,-8.4684,-8.4582,-8.4607,-8.4665,-8.4757,-8.4771,-8.4827,-8.4924,-8.4996,-8.4962,-8.5024,-8.5094,-8.5048,-8.5114,-8.5107,-8.5107,-8.4749,-8.4708,-8.5149,-8.5149,-8.5149,-8.5149,-8.5149,-8.5149,-8.4756,-8.4908,-8.487,-8.5026,-8.5018,-8.5117,-8.5141,-8.5167,-8.5178,-8.5292,-8.5351,-8.5328,-8.5323,-8.5384,-8.5445,-8.5433,-8.5462,-8.5544,-8.5516,-8.5182,-8.5133,-8.5086,-8.5046,-8.5552,-8.5552,-8.5866,-8.5869,-8.5872]},{"header":{"parameterUnit":"m.s-1","parameterCategory":1,"la1":30.2991,"la2":30.254,"lo1":-89.0895,"lo2":-89.0444,"dy":0.0017,"dx":0.0017,"nx":28,"ny":28,"refTime":"2024-06-16T21:00:00:Z","depth":0,"parameterNumber":3,"parameterNumberName":"V-component_of_WINDS"},"data":[0,0,0,0,0,0,0,0,0,0,0,0,0,0,0,0,0,0,0,0,0,0,0,0,0,0,0,0,0,0,0,0,0,0,0,0,0,0,0,0,0,0,0,0,0,0,0,0,0,0,0,0,0,0,0,0,0,0,-1.3956,-1.3956,0,-1.4008,-1.4009,-1.401,-1.4064,-1.4065,-1.4065,-1.4066,-1.4115,-1.4116,-1.4116,0,0,0,0,0,0,0,0,0,0,0,0,0,-1.3896,-1.3897,-1.3956,-1.3956,-1.3957,-1.4008,-1.4009,-1.401,-1.4064,-1.4065,-1.4066,-1.4066,-1.4115,-1.4116,-1.4116,0,0,0,0,0,0,0,0,0,0,0,0,0,-1.3933,-1.3898,-1.3955,-1.399,-1.3994,-1.4008,-1.4009,-1.401,-1.4063,-1.4065,-1.4066,-1.4067,-1.4115,-1.4116,-1.4116,-1.4099,0,0,-1.4119,-1.412,0,0,0,0,0,0,0,0,-1.3931,-1.3935,-1.3984,-1.3988,-1.3992,-1.4031,-1.4006,-1.404,-1.4063,-1.4037,-1.4066,-1.4067,-1.4086,-1.4089,-1.4096,-1.4102,-1.4104,-1.4119,-1.412,-1.412,-1.4121,0,0,0,0,0,0,0,-1.3928,-1.3933,-1.3976,-1.3985,-1.399,-1.4001,-1.4008,-1.4013,-1.4054,-1.4039,-1.4043,-1.4049,-1.4088,-1.4095,-1.4098,-1.4105,-1.4119,-1.412,-1.4121,-1.4121,-1.4097,-1.4096,0,0,0,0,0,0,-1.3921,-1.393,-1.3975,-1.3978,-1.3964,-1.4002,-1.4009,-1.4017,-1.4054,-1.4061,-1.4048,-1.4051,-1.4093,-1.4097,-1.41,-1.4081,-1.412,-1.4121,-1.4122,-1.4098,-1.4096,-1.4095,0,0,0,0,0,0,-1.3919,-1.3924,-1.3973,-1.3955,-1.3962,-1.4001,-1.401,-1.4017,-1.4025,-1.4061,-1.4068,-1.4048,-1.4094,-1.4099,-1.4099,-1.4083,-1.4122,-1.4122,-1.4099,-1.4097,-1.4096,-1.4044,0,0,0,0,0,0,-1.3918,-1.3924,-1.3919,-1.3955,-1.3963,-1.3972,-1.4009,-1.4018,-1.4027,-1.4032,-1.4063,-1.4069,-1.4096,-1.4097,-1.41,-1.4085,-1.4123,-1.4101,-1.4098,-1.4096,-1.4047,-1.404,-1.4035,0,0,0,0,0,-1.3915,-1.3901,-1.3918,-1.3923,-1.3958,-1.3971,-1.3976,-1.4008,-1.4026,-1.402,-1.4043,-1.4068,-1.4085,-1.4097,-1.41,-1.4086,-1.4102,-1.4099,-1.4097,-1.405,-1.4042,-1.4035,0,0,0,0,0,0,-1.386,-1.3906,-1.3926,-1.3923,-1.3943,-1.398,-1.3974,-1.3998,-1.4012,-1.4016,-1.4053,-1.406,-1.4055,-1.4071,-1.4083,-1.407,-1.4097,-1.4095,-1.406,-1.4053,-1.4047,-1.4042,-1.4124,0,0,0,0,0,-1.3848,-1.3857,-1.3896,-1.389,-1.3899,-1.3935,-1.3942,-1.3965,-1.3986,-1.3994,-1.4017,-1.4035,-1.4045,-1.405,-1.4061,-1.405,-1.4056,-1.4042,-1.4035,-1.403,-1.4027,-1.4021,-1.4014,-1.4086,-1.4086,-1.4086,0,0,-1.3822,-1.3849,-1.3852,-1.3879,-1.3898,-1.3903,-1.3941,-1.3946,-1.3951,-1.3994,-1.3996,-1.4014,-1.4037,-1.4031,-1.403,-1.4044,-1.4009,-1.4027,-1.4022,-1.4022,-1.4017,-1.401,-1.4004,-1.4085,-1.4085,-1.4085,0,0,-1.3779,-1.38,-1.3797,-1.3815,-1.3842,-1.3866,-1.3865,-1.3899,-1.3912,-1.3915,-1.3948,-1.3953,-1.3969,-1.3983,-1.3992,-1.3954,-1.3977,-1.3956,-1.3923,-1.3917,-1.3911,-1.3906,-1.389,-1.3885,-1.3954,-1.3954,-1.3954,0,-1.3743,-1.3755,-1.3792,-1.3795,-1.3805,-1.3847,-1.3843,-1.3857,-1.3886,-1.3891,-1.3907,-1.3927,-1.3946,-1.3943,-1.3934,-1.3941,-1.3939,-1.3952,-1.3909,-1.3905,-1.3901,-1.3886,-1.388,-1.3951,-1.3951,-1.3951,-1.3952,0,-1.3708,-1.3716,-1.371,-1.3738,-1.3748,-1.3747,-1.3782,-1.3787,-1.381,-1.3831,-1.3832,-1.3856,-1.3872,-1.3873,-1.3895,-1.3873,-1.3881,-1.3903,-1.393,-1.389,-1.3877,-1.3872,-1.3947,-1.3948,-1.3949,-1.3949,0,0,-1.363,-1.3679,-1.3676,-1.3688,-1.3722,-1.3727,-1.3728,-1.3745,-1.3748,-1.3766,-1.3766,-1.3778,-1.3799,-1.3809,-1.3832,-1.3827,-1.3792,-1.3849,-1.385,-1.3836,-1.3768,-1.375,-1.3743,-1.3809,-1.3808,-1.3807,-1.3765,0,-1.359,-1.3595,-1.3628,-1.3623,-1.3629,-1.3669,-1.3669,-1.3688,-1.3709,-1.3716,-1.3738,-1.3745,-1.3772,-1.3779,-1.3775,-1.3797,-1.3779,-1.3801,-1.3807,-1.3806,-1.3798,-1.3736,-1.3717,-1.3677,-1.3761,-1.376,-1.3759,0,-1.3544,-1.3561,-1.3556,-1.3589,-1.3593,-1.3592,-1.361,-1.3617,-1.3639,-1.3654,-1.3666,-1.3693,-1.3694,-1.3721,-1.3721,-1.3735,-1.374,-1.3751,-1.375,-1.375,-1.3779,-1.3732,-1.3665,-1.3658,-1.3752,-1.3752,-1.3753,0,-1.3484,-1.3506,-1.3506,-1.3516,-1.3554,-1.3553,-1.3568,-1.3592,-1.36,-1.3615,-1.362,-1.3634,-1.3641,-1.3651,-1.368,-1.3697,-1.3676,-1.3706,-1.3686,-1.3685,-1.3678,-1.3678,-1.3608,-1.3685,-1.3685,-1.3685,-1.3685,0,-1.3435,-1.343,-1.3479,-1.3479,-1.3474,-1.3512,-1.3505,-1.3525,-1.3545,-1.3548,-1.3583,-1.3584,-1.3624,-1.3629,-1.3652,-1.3647,-1.3651,-1.3662,-1.3667,-1.3657,-1.3655,-1.3659,-1.3661,-1.3683,-1.3684,-1.3684,-1.3684,0,-1.3367,-1.34,-1.3402,-1.3439,-1.3448,-1.3442,-1.3473,-1.3473,-1.3496,-1.3499,-1.3501,-1.3537,-1.3545,-1.3575,-1.359,-1.3606,-1.3593,-1.3606,-1.3585,-1.3589,-1.3567,-1.3567,-1.3495,-1.3486,-1.357,-1.3569,-1.3569,0,-1.3332,-1.3329,-1.3366,-1.3371,-1.3386,-1.3393,-1.3402,-1.3439,-1.3445,-1.347,-1.3467,-1.3478,-1.3489,-1.3499,-1.3525,-1.3536,-1.3548,-1.3522,-1.355,-1.3539,-1.3545,-1.3544,-1.3542,-1.3515,-1.3514,-1.3513,-1.3512,0,-1.3266,-1.3282,-1.3294,-1.3311,-1.332,-1.3335,-1.3351,-1.3353,-1.3394,-1.34,-1.3409,-1.3417,-1.3433,-1.3443,-1.3459,-1.3473,-1.3498,-1.3504,-1.3499,-1.3487,-1.3475,-1.3479,-1.3567,-1.3504,-1.3505,-1.3506,-1.3506,-1.3506,-1.3212,-1.3211,-1.3236,-1.3247,-1.3264,-1.3279,-1.328,-1.3304,-1.3313,-1.333,-1.3351,-1.3357,-1.3378,-1.3402,-1.3415,-1.3419,-1.3433,-1.3427,-1.3425,-1.3423,-1.3417,-1.3477,-1.3422,-1.3422,-1.3423,-1.3423,-1.3423,0,-1.3145,-1.3164,-1.3174,-1.3197,-1.3205,-1.3231,-1.3251,-1.3255,-1.3261,-1.328,-1.329,-1.3299,-1.3309,-1.3336,-1.3348,-1.3346,-1.3357,-1.3347,-1.3347,-1.3349,-1.3405,-1.3406,-1.3338,-1.3338,-1.3338,-1.3338,-1.3338,-1.3338,-1.3112,-1.3111,-1.313,-1.3137,-1.3156,-1.3163,-1.3172,-1.3185,-1.32,-1.321,-1.3218,-1.3237,-1.3258,-1.3272,-1.3281,-1.3289,-1.329,-1.3276,-1.3286,-1.3337,-1.3345,-1.3353,-1.3355,-1.3276,-1.3276,-1.3231,-1.323,-1.323]}]]